| time (UTC) | temp C | wind direction | speed KPH | gust KPH | rain 1hr cm | rain 24hr cm | rain mn cm | humidity % | barometer mb |
| 20260503050023 | 5 | 2 | 0.0 | 0.0 | 0.00 | 0.00 | 0.00 | 71 | 1019.7 |
| 20260503044518 | 6 | 3 | 0.0 | 0.0 | 0.00 | 0.00 | 0.00 | 68 | 1019.7 |
| 20260503043024 | 6 | 4 | 0.0 | 0.0 | 0.00 | 0.00 | 0.00 | 66 | 1019.5 |
| 20260503041514 | 6 | 347 | 0.0 | 3.2 | 0.00 | 0.00 | 0.00 | 65 | 1019.4 |
| 20260503040017 | 6 | 314 | 0.0 | 4.8 | 0.00 | 0.00 | 0.00 | 63 | 1019.3 |
| 20260503034510 | 6 | 347 | 0.0 | 0.0 | 0.00 | 0.00 | 0.00 | 62 | 1019.2 |
| 20260503033010 | 6 | 9 | 0.0 | 1.6 | 0.00 | 0.00 | 0.00 | 60 | 1019.2 |
| 20260503031510 | 7 | 9 | 0.0 | 0.0 | 0.00 | 0.00 | 0.00 | 61 | 1019.1 |
| 20260503030008 | 7 | 12 | 0.0 | 3.2 | 0.00 | 0.00 | 0.00 | 57 | 1019.2 |
| 20260503024507 | 7 | 303 | 0.0 | 3.2 | 0.00 | 0.00 | 0.00 | 55 | 1019.0 |
| 20260503023005 | 7 | 333 | 0.0 | 1.6 | 0.00 | 0.00 | 0.00 | 55 | 1018.9 |
| 20260503021505 | 7 | 337 | 0.0 | 1.6 | 0.00 | 0.00 | 0.00 | 53 | 1018.7 |
| 20260503020003 | 8 | 312 | 0.0 | 1.6 | 0.00 | 0.00 | 0.00 | 52 | 1018.7 |
| 20260503014505 | 8 | 323 | 0.0 | 1.6 | 0.00 | 0.00 | 0.00 | 51 | 1018.6 |
| 20260503013001 | 8 | 347 | 0.0 | 3.2 | 0.00 | 0.00 | 0.00 | 50 | 1018.2 |
| 20260503011500 | 9 | 320 | 0.0 | 9.7 | 0.00 | 0.00 | 0.00 | 50 | 1017.9 |
| 20260503010100 | 9 | 338 | 0.0 | 12.9 | 0.00 | 0.00 | 0.00 | 52 | 1017.8 |
| 20260503004601 | 10 | 273 | 0.0 | 1.6 | 0.00 | 0.00 | 0.00 | 51 | 1017.5 |
| 20260503003102 | 10 | 262 | 0.0 | 6.4 | 0.00 | 0.00 | 0.00 | 51 | 1017.4 |
| 20260503001559 | 10 | 261 | 1.6 | 4.8 | 0.00 | 0.00 | 0.00 | 50 | 1017.2 |
| 20260503000059 | 10 | 275 | 0.0 | 8.0 | 0.00 | 0.00 | 0.00 | 50 | 1017.1 |
| 20260502234603 | 10 | 302 | 1.6 | 12.9 | 0.00 | 0.00 | 0.00 | 48 | 1017.1 |
| 20260502233057 | 11 | 277 | 0.0 | 9.7 | 0.00 | 0.00 | 0.00 | 48 | 1016.8 |
| 20260502231609 | 11 | 347 | 0.0 | 16.1 | 0.00 | 0.00 | 0.00 | 47 | 1016.8 |
| 20260502230057 | 11 | 268 | 0.0 | 6.4 | 0.00 | 0.00 | 0.00 | 47 | 1016.7 |
| 20260502224559 | 11 | 347 | 1.6 | 12.9 | 0.00 | 0.00 | 0.00 | 45 | 1016.6 |
| 20260502223056 | 11 | 347 | 0.0 | 8.0 | 0.00 | 0.00 | 0.00 | 47 | 1016.6 |
| 20260502221555 | 12 | 347 | 1.6 | 6.4 | 0.00 | 0.00 | 0.00 | 47 | 1016.6 |
| 20260502220055 | 11 | 246 | 6.4 | 12.9 | 0.00 | 0.00 | 0.00 | 45 | 1016.6 |
| 20260502214555 | 11 | 285 | 0.0 | 12.9 | 0.00 | 0.00 | 0.00 | 46 | 1016.4 |
| 20260502213105 | 12 | 347 | 3.2 | 12.9 | 0.00 | 0.00 | 0.00 | 43 | 1016.4 |
| 20260502211554 | 12 | 347 | 1.6 | 8.0 | 0.00 | 0.00 | 0.00 | 47 | 1016.3 |
| 20260502210052 | 12 | 347 | 0.0 | 6.4 | 0.00 | 0.00 | 0.00 | 47 | 1016.4 |
| 20260502204556 | 11 | 235 | 1.6 | 9.7 | 0.00 | 0.00 | 0.00 | 45 | 1016.4 |
| 20260502203052 | 11 | 347 | 0.0 | 8.0 | 0.00 | 0.00 | 0.00 | 47 | 1016.6 |
| 20260502201551 | 12 | 347 | 1.6 | 6.4 | 0.00 | 0.00 | 0.00 | 45 | 1016.5 |
| 20260502200049 | 12 | 233 | 3.2 | 14.5 | 0.00 | 0.00 | 0.00 | 44 | 1016.5 |
| 20260502194547 | 11 | 347 | 3.2 | 17.7 | 0.00 | 0.00 | 0.00 | 46 | 1016.7 |
| 20260502193051 | 12 | 296 | 1.6 | 6.4 | 0.00 | 0.00 | 0.00 | 42 | 1016.7 |
| 20260502191548 | 12 | 47 | 3.2 | 16.1 | 0.00 | 0.00 | 0.00 | 44 | 1017.0 |
| 20260502190044 | 12 | 40 | 1.6 | 9.7 | 0.00 | 0.00 | 0.00 | 47 | 1017.1 |
| 20260502184553 | 11 | 56 | 0.0 | 11.3 | 0.00 | 0.00 | 0.00 | 47 | 1017.4 |
| 20260502183044 | 12 | 231 | 1.6 | 14.5 | 0.00 | 0.00 | 0.00 | 50 | 1017.5 |
| 20260502181544 | 11 | 260 | 3.2 | 12.9 | 0.00 | 0.00 | 0.00 | 46 | 1017.4 |
| 20260502163037 | 11 | 306 | 3.2 | 14.5 | 0.00 | 0.00 | 0.00 | 44 | 1017.8 |
| 20260502161535 | 11 | 310 | 0.0 | 14.5 | 0.00 | 0.00 | 0.00 | 46 | 1017.9 |
| 20260502151530 | 11 | 342 | 1.6 | 9.7 | 0.00 | 0.00 | 0.00 | 51 | 1018.3 |
| 20260502123015 | 5 | 253 | 0.0 | 0.0 | 0.00 | 0.00 | 0.00 | 91 | 1018.1 |
| 20260502121533 | 5 | 347 | 0.0 | 1.6 | 0.00 | 0.00 | 0.00 | 92 | 1017.9 |
| 20260502114511 | 3 | 254 | 0.0 | 0.0 | 0.00 | 0.00 | 0.00 | 92 | 1018.0 |
| 20260502113010 | 2 | 254 | 0.0 | 0.0 | 0.00 | 0.00 | 0.00 | 92 | 1018.2 |
| 20260502111510 | 2 | 254 | 0.0 | 0.0 | 0.00 | 0.00 | 0.00 | 92 | 1017.9 |
| 20260502110009 | 2 | 254 | 0.0 | 0.0 | 0.00 | 0.03 | 0.00 | 92 | 1017.9 |
| 20260502104507 | 2 | 254 | 0.0 | 0.0 | 0.00 | 0.03 | 0.00 | 91 | 1017.8 |
| 20260502103006 | 2 | 254 | 0.0 | 0.0 | 0.00 | 0.03 | 0.00 | 91 | 1017.4 |
| 20260502101510 | 2 | 293 | 0.0 | 0.0 | 0.00 | 0.03 | 0.00 | 91 | 1018.1 |
| 20260502090104 | 2 | 293 | 0.0 | 0.0 | 0.00 | 0.03 | 0.00 | 91 | 1018.1 |
| 20260502070045 | 3 | 293 | 0.0 | 0.0 | 0.00 | 0.03 | 0.00 | 88 | 1017.7 |
| 20260502064543 | 4 | 302 | 0.0 | 0.0 | 0.00 | 0.03 | 0.00 | 88 | 1017.7 |
| 20260502063046 | 4 | 303 | 0.0 | 0.0 | 0.00 | 0.03 | 0.00 | 87 | 1017.8 |
| 20260502061539 | 5 | 303 | 0.0 | 0.0 | 0.00 | 0.03 | 0.00 | 86 | 1018.2 |
| 20260502060036 | 5 | 303 | 0.0 | 0.0 | 0.00 | 0.03 | 0.00 | 85 | 1018.3 |
| 20260502054541 | 5 | 303 | 0.0 | 0.0 | 0.00 | 0.03 | 0.00 | 84 | 1018.2 |
| 20260502053035 | 5 | 303 | 0.0 | 0.0 | 0.00 | 0.03 | 0.00 | 82 | 1018.3 |
| 20260502051527 | 6 | 303 | 0.0 | 0.0 | 0.00 | 0.03 | 0.00 | 81 | 1018.5 |